Погода в Кюсюре

Хотите узнать прогноз погоды в Кюсюре? Тогда Вам сюда: Погода в Кюсюре

Поиск расширенной информации на нашем сайте:

Полезная информация:

Новости сайта



02.01.2020
Опубликован Долгосрочный прогноз погоды по городам России и ближнего зарубежья на январь 2020 года.
Карты: Прогноз на январь и февраль 2020 года, Сравнение прогнозируемой аномалии приземной температуры воздуха на январь 2020 года по разным моделям.




Погода в Кюсюре - сегодня

Время (UTC), дата Ветер
(°,м/с) 
Видим.   Явления Облачность Т
(°С)
Тd
(°С)
f(%) Тe
(°С)
Pmin
(гПа)
dP
(гПа)
Po
(мм)
O2
(г/м3)
Тmin Tmax R s Состояние
почвы
18 29.11.20 200 (Ю) 4000 м  слаб. снег  10/0 средняя 
[As op]
-18.6 -21.2 80 -25  1015.7  -2  758  330           
21 29.11.20 200 (Ю) 6{10}  4000 м  слаб. снег  10/0 средняя 
[As op]
-17.4 -20 80 -24  1013.6  -2  757  327           
00 30.11.20 190 (Ю) 4{11}  4000 м  слаб. снег  10/0 средняя, верхняя 
[Ac trans|Cs]
-17 -19.6 80 -22  1012.5  -1.1  756  326  -20.6    43  неравномерный
сухой снег
100% 
03 30.11.20 190 (Ю) 8-11{13}  4000 м  слаб. снег  10/0 средняя 
[As op]
-16.1 -18.8 80 -24  1010.3  -2.2  755  325           
06 30.11.20 190 (Ю) 7-10{14}  4000 м  слаб. снег  10/0 средняя 
[As op]
-15.7 -17.6 85 -23  1009.3  -1  754  324           
09 30.11.20 210 (ЮЗ) 7-11{13}  4000 м  слаб. снег  10/0 средняя 
[As op]
-14.9 -16.9 85 -22  1008  -1.3  753  322           
12 30.11.20 200 (Ю) 7-11{14}  4000 м  слаб. снег  10/0 средняя 
[As op]
-14.4 -16.4 85 -21  1005.9  -2.1  751  321    -14.4     
15 30.11.20 190 (Ю) 9-14{14}  4000 м  слаб. снег  10/0 средняя 
[As op]
-14.5 -16.5 85 -22  1003.8  -2.1  750  320           
18 30.11.20 190 (Ю) 1-16{20}  4000 м  слаб. снег  10/0 средняя 
[As op]
-15.2 -17.2 85 -15  1004.3  0.5  750  321           
21 30.11.20 190 (Ю) 9-15{16}  4000 м  слаб. снег  10/0 средняя 
[As op]
-15.3 -17.3 85 -23  1003.9  -0.4  750  321           
00 01.12.20 190 (Ю) 9-13{15}  4000 м  слаб. снег  10/0 средняя 
[As op]
-15.3 -17.3 85 -23  1002.3  -1.6  749  321  -15.5    49  неравномерный
сухой снег
100% 
03 01.12.20 210 (ЮЗ) 9-13{15}  4000 м  слаб. снег  10/0 средняя 
[As op]
-15.5 -18.2 80 -24  1000.6  -1.7  747  321  -15.8         
06 01.12.20 200 (Ю) 9-14{14}  4000 м  слаб. снег  10/0 средняя 
[As op]
-15.9 -17.8 85 -24  997.6  -2.9  745  320           
09 01.12.20 200 (Ю) 8-12{14}  4000 м  слаб. снег  10/0 средняя 
[As op]
-16.1 -18 85 -24  997.7  0.1  745  321           
12 01.12.20 200 (Ю) 9-13{14}  4000 м  слаб. снег  10/0 средняя 
[As op]
-17 -18.9 85 -25  998.3  0.6  746  322    -14.4     
15 01.12.20 210 (ЮЗ) 9-12{13}  4000 м  слаб. снег  10/0 средняя 
[As op]
-18 -19.9 85 -27  998.9  0.5  746  323           
21 01.12.20 200 (Ю) 8-12{13}  4000 м  слаб. снег  10/0 средняя 
[As op]
-18 -19.9 85 -26  998.2  -0.5  745  323           
00 02.12.20 200 (Ю) 6-10{13}  4000 м  слаб. снег  10/0 средняя 
[As op]
-17.6 -19.5 85 -24  997.7  -0.5  745  322  -18.4    56  неравномерный
сухой снег
100% 
03 02.12.20 190 (Ю) 6{10}  10 км  слаб. снег  10/0 средняя 
[As op]
-17.7 -20.3 80 -25  997  -0.7  745  322           
06 02.12.20 190 (Ю) 4000 м  слаб. снег  10/0 средняя 
[As op]
-17.1 -19 85 -17  996.2  -0.7  744  321           
09 02.12.20 190 (Ю) 4000 м  слаб. снег  10/0 средняя 
[As op]
-17.4 -19.3 85 -18  996.3  0.1  744  322           
12 02.12.20 190 (Ю) 4000 м  слаб. снег  10/0 средняя 
[As op]
-18 -19.9 85 -18  997.2  0.8  745  323    -16.7     
15 02.12.20 190 (Ю) 4000 м  слаб. снег  10/0 средняя 
[As op]
-17.7 -19.6 85 -22  997.4  0.2  745  322           
18 02.12.20 200 (Ю) 10 км  слаб. снег  10/0 средняя 
[As op]
-17.9 -20.5 80 -23  997.8  0.4  745  323           
21 02.12.20 200 (Ю) 10 км  слаб. снег  10/0 средняя 
[As op]
-18.2 -20.8 80 -22  997.2  -0.6  745  323           
Время (UTC), дата Ветер
(°,м/с) 
Видим.   Явления Облачность Т
(°С)
Тd
(°С)
f(%) Тe
(°С)
Pmin
(гПа)
dP
(гПа)
Po
(мм)
O2
(г/м3)
Тmin Tmax R s Состояние
почвы

Для получения пояснительной информации подведите курсор к названию столбца.

ПОГОДА в Кюсюре - архив

Всё, что Вы хотите узнать о погоде в Кюсюре - удобно и подробно!

Выберите нужную дату (начиная с 1 января 2019* года) и нажмите кнопку "Найти".
Будут отображены архивные сводки погоды по пункту Кюсюр, начиная с указанной даты.


Отображать данные в формате CSV (для использования в таблицах Excel)


Внимание! Наш архив погоды предназначен исключительно для личного некоммерческого использования в познавательных целях. Если Вам необходимы официальные справки о состоянии погоды (для производственных, юридических, коммерческих и т.п. целей), обращайтесь в органы Росгидромета.

*Примечание: данная дата относится к архиву по метеостанциям СССР (Россия, СНГ, Балтия).
Архив по метеостанциям Зарубежной Европы и Азии (кроме Китая) хранится 10 дней, по другим регионам земного шара (Китай, Африка, Америка, Австралия, Океания) - 1 день.

Кюсюр - район местоположения метеостанции


Название, широта, долгота, высота метеостанции:
Кюсюр 70.7°ш. 127.4°д. 33 м над ур. моря [Российская Федерация]

Дополнительная информация

В oтличие oт бoльшинства пoгoдных сайтoв мы публикуем пoдрoбную метеoинфoрмацию в детальнoм прoфессиoнальнoм фoрмате.

Характеристики температуры и влажнoсти вoздуха измеряются на высoте 2 м в тени вдали oт зданий и деревьев.
Скoрoсть ветра измеряется на высoте 10 м (на урoвне рoста челoвека скoрoсть ветра ниже в 1.5-2 раза). Если метеoстанция нахoдится в гoрoде или в лесу, тo скoрoсть ветра занижена на 2-4 м/с пo сравнению с oткрытым местoм. Скoрoсть ветра над акватoриями крупных рек и oзёр, а также на вершинах хoлмoв на 2-5 м/с выше, чем в oбычных услoвиях.
Атмoсфернoе давление в разных тoчках местнoсти мoжет значительнo oтличаться oт давления на метеoстанции, в зависимoсти oт услoвий рельефа (при пoдъёме на 10 м давление пoнижается примернo на 1 мм рт.ст.).